Find Global-32

NORAD ID: 64231 Int'l Des: 2025-118 Owner: BSKG Country: US operational
LEOCIRCULAR

現在のビュー

3D地球を読み込み中...

About Global-32

Global-32 (NORAD 64231) is a satellite launched Jun 2, 2025 by BSKG of US. It operates in LEO, CIRCULAR orbit with a mass of 138.00 kg.

次回通過

Passes for default location (London). Set your location on the main map for personalized predictions.

高度履歴

Loading altitude history...

軌道要素

1 64231U 25118B 26194.63652569 .00007645 00000-0 20225-3 0 9993
2 64231 58.9936 25.4898 0016361 60.1699 300.1001 15.39262110 62319
Epoch: Jul 13, 2026 • Age: 10 hours

現在のステータス

高度 473.7 km
遠地点 / 近地点 N/A
速度 7.62 km/s
衛星直下点 -41.55°S, 80.6°W
打ち上げ日 Jun 2, 2025
運用期間 1.1 years
タイプ earth observation

技術仕様

分類 Payload
質量 138.00 kg
乾燥質量 134.00 kg
総質量 138.00 kg
長さ 1.50 m
直径 1.00 m
スパン 3.00 m
形状 Box+2 pan
製造者 LEOSTL
バスタイプ BSky
フェーズステータス In Orbit
所有者/国 BSKG/US

Most Searched